Location: Newark
(45.8667°N, 9.7333°E)
Time: 14:00:18
(UTC+00:00)

Transit 4A - Pass Details

Date: 30 January 2020
Orbit: 872 x 973 km, 66.8° (Epoch: 23 February)

Event Time Altitude Azimuth Distance (km) Brightness Sun altitude
Rises 10:30:54 0° 327° (NNW) 3,480 10.3 24.8°
Reaches altitude 10° 10:35:15 10° 358° (N) 2,532 9.7 25.0°
Maximum altitude 10:37:30 12° 21° (NNE) 2,375 9.7 25.1°
Drops below altitude 10° 10:39:45 10° 44° (NE) 2,529 10.0 25.2°
Sets 10:44:05 0° 74° (ENE) 3,471 10.9 25.4°
